Temp
-14 -14 -15 -15 -15 -14 -14 -15 -15 -15 -15 -16 -16 -16 -15 -15 -15 -15 -15 -15 -15 -15 -15 -15 -16 -16 -16 -16 -17 -17 -17 -18 -18 -18 -18 -18 -18 -19 -19 -19 -20 -20 -19
-14 -14 -15 -15 -15 -15 -15 -15 -15 -15 -15 -15 -15 -15 -15 -15 -15 -15 -15 -15 -15 -15 -16 -16 -16 -16 -17 -17 -17 -17 -17 -18 -18 -18 -18 -18 -19 -19 -20 -19 -20 -20 -20
-15 -15 -15 -15 -15 -16 -16 -15 -15 -15 -15 -15 -15 -14 -14 -15 -15 -15 -15 -15 -15 -15 -16 -16 -17 -17 -17 -17 -17 -17 -18 -18 -19 -19 -19 -19 -19 -19 -19 -20 -20 -20 -21
-15 -14 -15 -15 -15 -15 -16 -15 -15 -15 -15 -15 -14 -14 -15 -15 -15 -15 -15 -15 -15 -16 -16 -17 -17 -17 -17 -18 -18 -18 -19 -19 -19 -19 -19 -19 -19 -19 -19 -19 -20 -21 -21
-14 -14 -15 -15 -15 -15 -15 -15 -15 -15 -15 -15 -14 -15 -15 -15 -15 -15 -15 -16 -16 -16 -17 -17 -17 -17 -18 -18 -18 -20 -20 -19 -19 -19 -19 -19 -20 -20 -20 -20 -20 -21 -21
-15 -15 -15 -15 -15 -14 -14 -14 -15 -15 -15 -15 -15 -15 -15 -15 -15 -15 -16 -16 -16 -17 -17 -17 -17 -18 -18 -18 -19 -19 -19 -19 -19 -19 -20 -20 -20 -20 -21 -21 -21 -21 -22
-15 -14 -14 -14 -14 -14 -14 -15 -15 -15 -15 -15 -15 -15 -15 -16 -16 -16 -16 -16 -17 -17 -17 -18 -18 -18 -19 -19 -19 -19 -19 -19 -20 -20 -20 -21 -21 -21 -21 -22 -22 -22 -23
-14 -14 -14 -14 -14 -15 -15 -15 -15 -15 -15 -15 -15 -16 -16 -16 -16 -16 -16 -16 -17 -18 -20 -19 -19 -19 -19 -20 -19 -20 -20 -20 -20 -20 -21 -21 -21 -21 -22 -22 -23 -23 -23
-15 -15 -15 -15 -15 -15 -15 -15 -15 -15 -15 -15 -16 -16 -16 -15 -15 -16 -17 -18 -18 -19 -19 -19 -19 -19 -20 -20 -20 -20 -20 -21 -21 -21 -21 -22 -22 -22 -23 -24 -24 -24 -24
-15 -15 -15 -15 -15 -15 -15 -15 -15 -15 -15 -16 -16 -16 -16 -17 -18 -18 -19 -19 -19 -19 -19 -19 -20 -20 -20 -20 -20 -20 -20 -21 -21 -21 -21 -22 -23 -24 -24 -25 -25 -25 -25
-15 -15 -15 -15 -15 -15 -15 -15 -15 -16 -16 -16 -16 -17 -18 -18 -18 -19 -19 -19 -20 -20 -20 -20 -20 -20 -21 -21 -21 -21 -21 -21 -21 -22 -23 -23 -24 -25 -25 -25 -25 -26 -27
-15 -15 -15 -15 -15 -15 -16 -15 -16 -16 -16 -16 -16 -17 -18 -18 -19 -19 -19 -19 -20 -20 -20 -20 -21 -21 -21 -21 -21 -21 -21 -22 -22 -23 -24 -25 -25 -25 -26 -26 -27 -28 -30
-15 -15 -15 -15 -15 -15 -15 -15 -15 -16 -16 -17 -17 -18 -18 -18 -19 -19 -20 -20 -20 -20 -20 -21 -21 -21 -21 -22 -22 -22 -22 -22 -24 -25 -25 -25 -25 -26 -27 -27 -28 -30 -31
-15 -15 -14 -14 -14 -14 -15 -15 -16 -16 -17 -17 -17 -18 -18 -19 -19 -19 -20 -20 -20 -20 -21 -21 -21 -21 -21 -22 -23 -23 -23 -24 -25 -25 -25 -25 -26 -27 -28 -29 -30 -31 -33
-15 -15 -15 -15 -15 -15 -16 -16 -16 -17 -17 -17 -18 -18 -19 -19 -19 -20 -20 -20 -20 -20 -21 -21 -21 -21 -22 -23 -23 -23 -25 -26 -26 -25 -26 -27 -28 -29 -30 -30 -31 -33 -33
-15 -15 -15 -15 -15 -16 -16 -16 -17 -17 -17 -18 -18 -19 -19 -19 -20 -20 -20 -20 -21 -21 -21 -22 -22 -23 -23 -23 -24 -25 -26 -26 -26 -27 -28 -29 -29 -30 -31 -32 -33 -34 -34
-16 -16 -16 -16 -16 -16 -17 -17 -17 -18 -18 -18 -19 -19 -20 -20 -20 -20 -21 -21 -21 -21 -22 -22 -23 -23 -24 -25 -26 -26 -26 -27 -28 -29 -29 -30 -31 -31 -32 -33 -34 -34 -34
-16 -16 -16 -16 -16 -17 -17 -17 -17 -18 -19 -19 -19 -20 -20 -20 -21 -21 -21 -21 -22 -22 -23 -23 -23 -24 -25 -26 -26 -27 -29 -29 -30 -30 -31 -31 -31 -32 -33 -34 -34 -35 -35
-16 -16 -16 -16 -16 -16 -17 -17 -18 -19 -19 -19 -20 -20 -21 -21 -21 -21 -22 -22 -23 -23 -23 -24 -25 -26 -27 -27 -28 -29 -29 -30 -30 -31 -32 -32 -32 -33 -33 -34 -35 -35 -35
-17 -16 -16 -16 -17 -18 -18 -18 -19 -19 -20 -20 -20 -21 -21 -21 -21 -22 -23 -23 -24 -24 -25 -26 -27 -27 -28 -29 -30 -30 -30 -31 -31 -32 -32 -32 -33 -34 -34 -34 -35 -35 -35
-16 -16 -16 -17 -17 -18 -18 -19 -19 -20 -20 -20 -21 -21 -21 -22 -22 -22 -23 -23 -24 -25 -26 -27 -28 -29 -30 -30 -30 -30 -31 -32 -32 -33 -33 -33 -34 -34 -34 -35 -35 -35 -35
-16 -16 -17 -17 -18 -18 -19 -19 -20 -21 -21 -21 -21 -21 -22 -22 -22 -23 -23 -24 -25 -26 -28 -29 -29 -30 -30 -30 -31 -31 -32 -33 -33 -33 -33 -33 -34 -34 -35 -35 -35 -35 -35
-17 -17 -18 -18 -19 -19 -19 -20 -21 -21 -21 -21 -21 -22 -22 -23 -23 -23 -24 -25 -26 -27 -29 -30 -30 -30 -30 -31 -31 -31 -33 -33 -33 -33 -34 -34 -34 -34 -35 -35 -35 -35 -35
-18 -18 -18 -19 -19 -20 -20 -21 -21 -21 -21 -21 -22 -22 -23 -23 -24 -25 -25 -26 -28 -29 -30 -30 -30 -30 -31 -31 -32 -32 -33 -33 -34 -34 -34 -34 -35 -35 -35 -35 -35 -35 -35
-18 -18 -19 -19 -20 -20 -21 -21 -21 -21 -22 -22 -23 -23 -23 -24 -25 -26 -27 -29 -30 -30 -30 -30 -31 -31 -31 -32 -32 -33 -33 -33 -34 -34 -34 -35 -35 -35 -35 -35 -35 -35 -35
-19 -19 -19 -20 -20 -21 -21 -21 -22 -22 -23 -23 -23 -24 -24 -25 -26 -27 -28 -30 -30 -31 -31 -31 -31 -31 -31 -32 -33 -33 -33 -33 -34 -34 -34 -35 -35 -35 -35 -35 -35 -35 -35
Height
5784 5787 5788 5787 5786 5788 5789 5790 5790 5790 5790 5790 5790 5789 5787 5785 5785 5784 5782 5779 5776 5775 5771 5767 5764 5759 5754 5749 5745 5740 5735 5729 5725 5721 5716 5710 5704 5697 5692 5687 5682 5677 5672
5781 5784 5784 5785 5787 5787 5788 5790 5789 5789 5788 5787 5786 5784 5783 5780 5778 5777 5775 5773 5770 5766 5763 5759 5753 5748 5743 5739 5734 5728 5722 5717 5712 5708 5704 5700 5695 5687 5681 5676 5670 5664 5658
5779 5781 5782 5784 5786 5787 5787 5786 5786 5786 5784 5784 5781 5779 5777 5775 5774 5772 5770 5766 5761 5757 5753 5748 5743 5738 5732 5728 5722 5716 5711 5706 5700 5694 5689 5685 5681 5676 5671 5665 5658 5650 5642
5778 5779 5781 5782 5783 5783 5783 5782 5781 5781 5779 5777 5776 5775 5773 5771 5769 5766 5762 5757 5752 5748 5744 5739 5734 5729 5723 5717 5711 5705 5700 5695 5690 5683 5676 5669 5663 5658 5656 5648 5640 5632 5623
5776 5775 5776 5777 5776 5776 5777 5777 5777 5776 5776 5774 5772 5771 5769 5765 5761 5757 5752 5747 5743 5739 5736 5732 5726 5719 5712 5706 5700 5694 5687 5682 5676 5668 5660 5653 5647 5641 5634 5630 5622 5612 5601
5773 5772 5772 5773 5773 5773 5772 5773 5772 5772 5771 5768 5767 5765 5761 5757 5753 5749 5744 5739 5736 5733 5727 5720 5713 5707 5701 5693 5687 5680 5673 5667 5659 5650 5644 5637 5630 5622 5614 5608 5604 5598 5587
5769 5769 5768 5768 5769 5769 5770 5769 5769 5769 5767 5764 5761 5758 5753 5749 5745 5740 5735 5731 5725 5718 5712 5704 5697 5692 5685 5679 5671 5663 5657 5651 5644 5637 5629 5621 5613 5604 5595 5586 5580 5574 5568
5767 5768 5766 5767 5767 5767 5766 5766 5765 5762 5760 5757 5753 5749 5745 5741 5735 5729 5724 5717 5711 5704 5699 5691 5683 5676 5670 5665 5658 5651 5645 5638 5630 5623 5614 5603 5594 5585 5575 5564 5555 5549 5543
5764 5764 5764 5763 5762 5763 5761 5760 5758 5755 5754 5750 5746 5742 5735 5729 5723 5717 5710 5705 5699 5693 5686 5679 5673 5666 5659 5653 5645 5638 5631 5622 5614 5605 5596 5586 5575 5565 5554 5543 5532 5517 5513
5758 5759 5758 5759 5758 5755 5753 5751 5750 5748 5744 5742 5737 5730 5723 5717 5711 5705 5700 5695 5690 5684 5678 5671 5663 5656 5648 5640 5632 5624 5616 5606 5597 5588 5578 5567 5556 5544 5534 5523 5511 5498 5485
5753 5753 5754 5754 5753 5751 5749 5745 5742 5739 5734 5730 5724 5719 5714 5708 5702 5697 5693 5686 5683 5675 5666 5658 5650 5643 5635 5626 5616 5608 5600 5590 5579 5568 5558 5548 5538 5526 5513 5502 5490 5477 5465
5749 5750 5750 5750 5748 5746 5743 5740 5735 5729 5724 5718 5713 5707 5703 5699 5694 5687 5682 5678 5669 5661 5653 5645 5637 5629 5620 5612 5602 5592 5582 5571 5560 5549 5539 5530 5521 5509 5496 5483 5470 5459 5448
5746 5745 5745 5743 5741 5738 5734 5731 5726 5719 5714 5709 5703 5698 5693 5689 5682 5678 5671 5664 5655 5646 5639 5631 5622 5614 5605 5595 5584 5574 5564 5555 5543 5533 5524 5515 5504 5493 5480 5467 5454 5445 5436
5739 5738 5735 5732 5729 5725 5721 5717 5712 5709 5703 5698 5694 5689 5683 5676 5671 5663 5656 5650 5641 5633 5625 5617 5608 5599 5589 5578 5567 5557 5546 5536 5527 5516 5507 5496 5485 5473 5462 5451 5441 5433 5425
5729 5726 5724 5721 5718 5716 5712 5708 5704 5699 5694 5688 5683 5677 5670 5663 5657 5650 5643 5636 5627 5619 5611 5601 5591 5581 5571 5560 5550 5539 5528 5519 5510 5501 5490 5478 5467 5456 5446 5437 5430 5423 5417
5719 5716 5714 5712 5709 5706 5702 5698 5693 5688 5683 5678 5671 5664 5658 5652 5645 5637 5629 5621 5613 5605 5595 5584 5574 5564 5554 5543 5533 5522 5512 5501 5490 5480 5470 5460 5451 5440 5430 5423 5417 5412 5407
5710 5709 5707 5704 5701 5696 5692 5688 5683 5678 5672 5665 5659 5653 5646 5638 5630 5622 5615 5607 5599 5589 5579 5569 5559 5548 5536 5524 5515 5505 5495 5483 5473 5464 5455 5446 5438 5429 5421 5413 5407 5403 5398
5705 5702 5698 5694 5689 5684 5680 5676 5670 5665 5659 5653 5646 5640 5633 5625 5617 5609 5601 5592 5582 5573 5564 5554 5542 5532 5519 5509 5498 5487 5477 5467 5458 5449 5441 5433 5425 5416 5409 5403 5399 5394 5390
5694 5691 5687 5682 5678 5673 5668 5663 5657 5651 5645 5639 5633 5626 5619 5611 5603 5595 5587 5578 5568 5557 5547 5536 5525 5515 5505 5492 5482 5474 5464 5454 5444 5436 5428 5421 5413 5406 5401 5395 5391 5387 5382
5683 5679 5674 5670 5665 5661 5655 5650 5644 5639 5633 5627 5620 5613 5605 5597 5588 5579 5571 5561 5551 5540 5528 5517 5507 5497 5487 5477 5467 5457 5448 5440 5432 5424 5416 5409 5402 5396 5392 5387 5383 5380 5375
5672 5668 5663 5658 5653 5648 5643 5638 5632 5626 5619 5612 5605 5598 5591 5582 5573 5563 5553 5544 5533 5522 5512 5502 5490 5480 5471 5463 5453 5443 5434 5425 5419 5411 5405 5399 5393 5388 5383 5379 5375 5372 5369
5660 5655 5650 5644 5639 5634 5628 5622 5617 5611 5606 5599 5592 5584 5575 5566 5557 5547 5536 5526 5516 5505 5494 5485 5478 5467 5457 5448 5439 5430 5420 5413 5407 5400 5394 5388 5384 5379 5375 5371 5368 5365 5362
5648 5643 5637 5632 5626 5622 5616 5611 5605 5599 5592 5585 5577 5569 5560 5550 5540 5530 5520 5509 5497 5488 5479 5470 5463 5454 5443 5434 5424 5416 5408 5400 5395 5389 5383 5378 5374 5371 5368 5364 5361 5358 5355
5635 5630 5626 5620 5614 5608 5603 5598 5592 5585 5577 5569 5561 5552 5543 5532 5522 5512 5502 5492 5481 5471 5463 5454 5447 5439 5430 5419 5410 5402 5395 5389 5383 5378 5374 5369 5365 5363 5360 5356 5354 5351 5348
5623 5618 5613 5607 5602 5596 5591 5584 5577 5569 5560 5552 5545 5535 5526 5515 5505 5494 5483 5473 5463 5453 5446 5438 5430 5421 5414 5404 5394 5388 5383 5378 5372 5367 5363 5359 5356 5354 5351 5349 5346 5343 5340
5610 5605 5600 5594 5589 5583 5576 5568 5560 5553 5546 5537 5527 5518 5509 5498 5487 5476 5468 5458 5447 5437 5427 5418 5409 5403 5393 5386 5381 5376 5370 5365 5360 5357 5353 5349 5347 5346 5344 5341 5338 5336 5333
Wind_Speed
2 5 5 2 5 6 8 8 11 13 14 15 15 17 16 15 14 16 19 23 26 29 33 35 38 40 43 44 45 47 47 47 48 49 50 52 52 50 46 46 49 52 56
1 3 6 6 7 10 13 13 16 15 15 16 15 14 12 14 19 23 26 30 32 36 38 40 43 45 47 48 50 51 50 50 53 54 54 54 52 50 50 53 57 60 64
3 3 4 4 4 7 13 17 14 13 13 14 13 14 16 20 25 28 31 35 38 41 44 45 47 49 50 51 53 54 54 54 58 57 57 58 56 54 56 59 62 66 70
6 7 7 8 7 9 12 15 12 12 12 14 16 19 22 26 30 33 36 39 42 44 45 49 50 51 52 52 53 52 52 56 59 57 59 59 59 62 64 68 72 74 78
5 5 6 7 11 11 10 9 8 11 13 15 20 24 27 31 35 38 40 43 46 47 46 48 51 53 55 54 55 54 59 62 62 61 60 62 66 68 71 72 74 77 84
5 6 2 3 5 8 9 9 9 14 18 21 26 28 31 35 39 42 44 46 47 48 52 52 53 53 55 55 54 53 58 61 64 63 64 67 71 73 75 76 77 80 87
4 4 4 4 3 7 10 14 15 18 22 25 28 31 35 40 43 45 47 48 51 54 54 55 58 56 57 56 58 60 62 64 64 64 67 71 75 77 79 81 85 89 84
3 5 3 5 9 12 15 19 19 22 26 29 32 34 40 44 47 49 50 53 54 53 55 56 59 63 58 61 65 65 65 65 65 67 72 74 76 78 82 86 89 84 82
7 6 7 10 14 17 20 22 25 29 31 33 36 39 45 48 50 50 52 51 51 51 57 59 60 57 58 67 67 67 66 66 69 73 76 80 84 85 86 85 82 85 84
10 11 12 14 18 21 26 29 32 35 39 40 41 43 44 41 46 48 46 49 51 57 59 61 60 57 59 64 67 67 68 71 74 79 81 86 86 84 84 81 83 82 78
13 14 16 18 21 25 30 34 38 42 43 41 40 42 45 47 48 49 49 53 56 60 62 61 60 62 63 66 67 69 72 75 78 82 87 87 81 79 76 77 77 75 68
17 19 21 22 25 28 32 37 41 42 42 45 45 48 50 46 50 51 54 56 60 60 59 62 64 64 65 67 72 75 76 79 82 86 81 79 78 76 75 70 69 66 59
23 25 25 28 31 33 36 36 35 37 39 41 47 50 47 57 53 57 53 56 58 60 60 63 63 62 66 73 78 84 89 87 84 80 78 79 78 75 71 66 63 57 52
23 27 30 32 33 33 33 32 40 39 41 44 42 43 56 52 57 55 54 58 61 63 62 63 64 68 71 74 79 87 88 84 78 78 79 81 79 68 61 60 56 49 43
28 31 32 35 36 36 41 42 40 41 45 45 49 55 48 56 55 57 59 60 61 61 62 66 70 75 77 80 82 84 83 76 76 83 81 72 65 60 58 54 48 44 39
34 36 38 38 40 41 43 42 43 41 44 45 53 51 50 56 57 59 59 58 60 62 65 74 76 76 80 83 83 79 75 80 83 76 68 59 57 55 54 47 41 39 36
37 39 42 45 45 46 39 41 36 41 48 50 49 51 54 57 58 58 58 59 64 67 67 73 80 83 86 82 79 78 81 77 69 61 57 57 55 53 49 41 37 35 34
38 40 42 44 47 48 48 47 48 49 47 49 53 54 55 56 58 59 63 67 71 70 73 76 80 84 81 79 79 77 69 62 60 57 55 54 52 46 42 37 34 32 31
39 41 44 46 48 50 49 47 48 50 50 52 52 54 56 57 60 62 64 70 73 75 79 80 79 77 78 79 71 68 66 62 56 54 52 51 47 42 38 34 31 29 29
41 44 47 48 46 44 46 48 48 49 50 51 52 54 57 62 64 65 68 71 72 76 78 77 76 78 66 69 65 67 66 58 53 50 48 46 40 38 35 31 29 27 27
45 47 46 46 46 48 48 48 48 49 51 52 54 57 59 65 66 66 68 71 74 77 77 75 68 65 65 66 66 68 62 53 49 47 45 41 37 35 31 29 27 26 25
46 47 48 49 50 50 50 51 51 50 52 55 59 62 62 63 66 68 70 72 74 75 71 67 63 63 68 67 69 68 59 51 46 44 42 37 34 32 29 28 26 26 24
46 47 47 49 50 50 51 51 50 52 57 60 61 61 62 65 68 70 72 74 74 73 68 64 62 65 68 70 71 64 54 49 45 42 39 35 32 30 28 27 25 25 24
47 48 49 50 50 51 51 51 54 58 60 61 62 63 65 68 71 73 74 73 70 68 67 65 66 69 70 71 68 58 50 46 43 41 36 33 31 28 26 26 25 25 24
49 50 50 51 51 51 53 56 59 60 61 62 63 66 69 71 73 74 73 70 67 68 67 69 71 73 72 69 63 54 49 45 41 39 35 32 30 28 25 24 25 24 25
51 51 52 52 53 55 58 60 59 59 61 64 67 70 72 74 75 74 71 68 67 68 71 74 76 76 73 65 58 51 48 43 40 36 34 34 30 29 27 26 25 23 24
Wind_Direction
119 139 138 56 342 334 335 332 320 317 314 312 300 293 293 297 296 301 306 308 308 309 310 310 310 309 310 311 309 308 307 307 307 305 304 304 305 303 300 299 299 298 297
173 131 72 43 13 339 328 325 313 303 301 293 285 293 297 311 312 311 310 308 310 311 311 312 313 311 309 308 307 308 307 307 306 304 303 304 305 300 299 300 300 300 299
268 352 351 356 351 318 311 313 307 300 297 292 301 305 313 312 307 308 308 308 311 311 313 314 311 309 309 309 309 307 305 304 307 307 305 305 303 300 300 301 300 299 301
245 275 286 304 299 299 304 304 304 305 300 308 298 305 308 305 303 305 306 308 309 312 313 309 308 307 306 308 307 306 306 304 305 304 306 305 305 306 306 306 305 305 304
263 291 283 272 281 285 289 291 287 298 293 296 300 300 301 302 304 305 307 308 311 311 308 304 302 305 305 305 305 306 302 302 304 307 307 308 308 307 306 307 308 307 306
323 308 10 206 250 280 282 287 299 300 297 301 297 300 303 304 304 305 306 307 305 302 301 301 302 302 305 307 306 300 301 304 307 309 309 308 308 307 307 307 307 307 303
1 353 12 11 322 286 287 292 295 294 295 296 300 303 305 303 304 305 305 304 303 304 305 307 308 310 308 310 309 307 306 306 307 306 306 306 307 308 310 308 306 304 307
308 297 317 299 290 291 288 289 294 298 299 300 302 304 300 300 303 305 306 306 308 308 308 308 308 309 301 304 306 304 304 304 304 304 305 307 309 308 307 306 305 307 314
279 281 289 296 297 290 292 297 301 300 299 299 299 298 300 304 307 309 309 307 305 304 304 307 304 304 296 299 301 301 303 304 303 304 306 307 306 307 306 305 311 313 316
283 289 300 294 294 301 303 304 302 301 301 297 297 295 301 297 301 307 301 301 301 301 302 303 303 300 297 297 300 302 303 304 304 305 307 307 307 305 305 311 314 317 315
287 291 290 293 297 299 299 299 298 299 298 297 292 287 300 302 301 298 298 296 299 301 302 303 302 301 301 300 302 303 304 303 304 307 309 306 304 305 311 318 317 314 308
280 284 287 288 288 290 291 292 296 297 295 296 297 303 302 295 296 298 296 297 302 302 302 303 304 303 303 303 303 303 303 303 305 308 305 302 303 309 319 317 311 305 303
270 278 280 279 279 284 287 292 287 289 290 296 299 295 293 302 300 300 300 300 299 301 302 301 301 300 302 304 307 307 302 301 304 303 301 300 308 318 319 311 304 302 301
276 273 280 284 291 294 292 288 302 293 290 292 291 284 296 295 297 302 299 300 301 302 302 302 302 302 303 303 304 302 303 307 304 299 301 308 316 319 309 303 302 299 299
295 298 297 302 302 295 302 301 297 298 290 286 286 291 289 299 302 301 301 301 302 303 303 303 303 303 303 303 302 305 308 302 298 300 309 318 316 308 304 303 301 299 298
295 298 303 301 299 297 301 299 295 290 284 282 293 292 293 300 299 301 303 303 303 303 301 301 303 304 304 305 307 306 301 299 304 315 319 311 307 304 301 300 299 298 298
294 297 297 297 298 298 293 294 279 279 289 293 294 297 298 300 301 302 302 303 302 303 299 300 299 300 305 308 306 301 301 312 319 316 311 307 306 304 301 301 298 296 299
289 291 294 297 297 296 295 295 296 297 298 296 296 298 300 301 302 304 304 306 307 304 301 300 300 302 308 305 301 311 319 317 313 311 306 305 304 302 300 299 294 296 301
291 294 294 293 294 297 300 302 301 300 299 299 299 301 303 302 303 306 300 299 299 296 298 302 303 305 302 306 314 316 319 316 309 306 306 305 305 303 300 297 292 295 300
291 291 294 298 300 300 299 299 300 299 299 300 301 301 303 305 305 304 301 301 301 302 304 306 304 307 310 313 318 321 320 313 309 307 305 305 305 301 301 296 291 292 298
293 296 297 298 300 302 302 302 303 303 303 304 304 304 302 303 304 304 305 305 304 306 305 307 310 311 315 318 319 321 317 310 308 306 306 306 303 301 301 296 291 292 296
297 299 302 304 304 304 305 306 306 304 304 303 304 304 303 304 304 306 307 307 306 307 308 309 311 315 318 318 318 318 314 309 306 304 304 305 301 300 299 297 293 290 293
302 303 303 302 303 304 304 304 303 303 303 304 303 304 305 305 307 309 309 309 308 308 309 311 313 316 317 316 316 314 312 308 304 302 302 301 297 298 297 295 291 290 295
302 302 302 302 303 304 304 304 304 305 304 304 306 307 307 309 311 311 309 309 309 309 310 311 312 314 314 314 313 312 311 308 302 299 299 295 294 296 294 292 291 289 292
301 301 301 303 304 304 304 305 305 306 306 307 307 307 309 310 310 310 310 311 310 310 310 310 310 312 313 312 311 308 306 306 300 297 296 289 286 290 293 294 292 291 290
300 301 303 303 303 305 306 307 306 305 306 307 308 309 310 310 310 310 309 309 309 309 310 311 311 312 311 309 305 303 302 303 301 294 291 287 279 279 286 290 295 295 291